• In Deutschland
  • Länderverzeichnis
  • Für 7 Tage
  • Wassertemperatur
  • Satellitenkarten
  • Wetterkarte
  • Widgets
  • user-avatar
    Anmelden

    Stündliche Wetter Merseburg

    Heute, 17 August, Freitag

    Zeit Temperatur Niederschläge Wind Luftdruck Luftfeuchtigkeit
    00:00 +23°C° 0 mm 1 m/S 753 mmHg 62%
    01:00 +21°C° 0 mm 2 m/S 753 mmHg 62%
    02:00 +21°C° 0 mm 2 m/S 753 mmHg 63%
    03:00 +20°C° 0 mm 2 m/S 753 mmHg 65%
    04:00 +20°C° 0 mm 2 m/S 752 mmHg 66%
    05:00 +21°C° 0 mm 2 m/S 753 mmHg 65%
    06:00 +23°C° 0 mm 2 m/S 753 mmHg 64%
    07:00 +23°C° 0 mm 2 m/S 753 mmHg 62%
    08:00 +25°C° 0 mm 2 m/S 753 mmHg 57%
    09:00 +27°C° 0 mm 2 m/S 753 mmHg 53%
    10:00 +29°C° 0 mm 2 m/S 753 mmHg 48%
    11:00 +30°C° 0 mm 2 m/S 753 mmHg 46%
    12:00 +30°C° 0 mm 2 m/S 753 mmHg 44%
    13:00 +31°C° 0 mm 2 m/S 753 mmHg 41%
    14:00 +31°C° 0 mm 2 m/S 753 mmHg 42%
    15:00 +31°C° 0 mm 2 m/S 753 mmHg 42%
    16:00 +31°C° 0 mm 2 m/S 753 mmHg 42%
    17:00 +30°C° 0,1 mm 2 m/S 753 mmHg 48%
    18:00 +28°C° 0,1 mm 3 m/S 753 mmHg 53%
    19:00 +26°C° 0,1 mm 3 m/S 753 mmHg 59%
    20:00 +25°C° 1,8 mm 3 m/S 754 mmHg 67%
    21:00 +22°C° 1,8 mm 3 m/S 755 mmHg 76%
    22:00 +20°C° 1,8 mm 3 m/S 755 mmHg 85%
    23:00 +20°C° 1,1 mm 3 m/S 756 mmHg 87%

    Morgen, 18 August, Samstag

    Zeit Temperatur Niederschläge Wind Luftdruck Luftfeuchtigkeit
    00:00 +20°C° 1,1 mm 3 m/S 756 mmHg 89%
    01:00 +19°C° 1,1 mm 2 m/S 756 mmHg 91%
    02:00 +19°C° 0,1 mm 2 m/S 756 mmHg 92%
    03:00 +19°C° 0,1 mm 2 m/S 756 mmHg 93%
    04:00 +18°C° 0,1 mm 2 m/S 756 mmHg 93%
    05:00 +18°C° 0 mm 2 m/S 757 mmHg 91%
    06:00 +19°C° 0 mm 2 m/S 757 mmHg 88%
    07:00 +19°C° 0 mm 2 m/S 757 mmHg 86%
    08:00 +20°C° 0 mm 2 m/S 757 mmHg 80%
    09:00 +21°C° 0 mm 2 m/S 758 mmHg 74%
    10:00 +23°C° 0 mm 2 m/S 758 mmHg 68%
    11:00 +24°C° 0 mm 2 m/S 758 mmHg 64%
    12:00 +25°C° 0 mm 2 m/S 758 mmHg 59%
    13:00 +26°C° 0 mm 2 m/S 757 mmHg 55%
    14:00 +26°C° 0 mm 1 m/S 757 mmHg 53%
    15:00 +27°C° 0 mm 1 m/S 757 mmHg 51%
    16:00 +27°C° 0 mm 1 m/S 757 mmHg 50%
    17:00 +26°C° 0 mm 1 m/S 757 mmHg 54%
    18:00 +25°C° 0 mm 1 m/S 757 mmHg 58%
    19:00 +24°C° 0 mm 1 m/S 757 mmHg 61%
    20:00 +23°C° 0 mm 1 m/S 757 mmHg 63%
    21:00 +22°C° 0 mm 1 m/S 758 mmHg 65%
    22:00 +21°C° 0 mm 1 m/S 758 mmHg 68%
    23:00 +21°C° 0 mm 1 m/S 758 mmHg 68%

    übermorgen, 19 August, Sonntag

    Zeit Temperatur Niederschläge Wind Luftdruck Luftfeuchtigkeit
    00:00 +20°C° 0 mm 1 m/S 758 mmHg 69%
    01:00 +20°C° 0 mm 1 m/S 758 mmHg 70%
    02:00 +19°C° 0 mm 1 m/S 758 mmHg 70%
    03:00 +19°C° 0 mm 1 m/S 758 mmHg 71%
    04:00 +19°C° 0 mm 1 m/S 758 mmHg 71%
    05:00 +19°C° 0 mm 1 m/S 758 mmHg 69%
    06:00 +20°C° 0 mm 1 m/S 758 mmHg 66%
    07:00 +21°C° 0 mm 1 m/S 758 mmHg 64%
    08:00 +23°C° 0 mm 1 m/S 758 mmHg 58%
    09:00 +25°C° 0 mm 1 m/S 758 mmHg 53%
    10:00 +26°C° 0 mm 1 m/S 758 mmHg 48%
    11:00 +27°C° 0 mm 1 m/S 758 mmHg 45%
    12:00 +28°C° 0 mm 1 m/S 758 mmHg 43%
    13:00 +29°C° 0 mm 1 m/S 757 mmHg 41%
    14:00 +30°C° 0 mm 1 m/S 757 mmHg 40%
    15:00 +30°C° 0 mm 1 m/S 756 mmHg 39%
    16:00 +30°C° 0 mm 1 m/S 756 mmHg 38%
    17:00 +28°C° 0 mm 1 m/S 756 mmHg 43%
    18:00 +27°C° 0 mm 1 m/S 756 mmHg 47%
    19:00 +26°C° 0 mm 1 m/S 756 mmHg 51%
    20:00 +25°C° 0 mm 1 m/S 756 mmHg 53%
    21:00 +24°C° 0 mm 1 m/S 756 mmHg 55%
    22:00 +23°C° 0 mm 1 m/S 756 mmHg 56%
    23:00 +23°C° 0 mm 1 m/S 756 mmHg 58%

    20 August, Montag

    Zeit Temperatur Niederschläge Wind Luftdruck Luftfeuchtigkeit
    00:00 +22°C° 0 mm 1 m/S 756 mmHg 61%
    01:00 +22°C° 0 mm 1 m/S 756 mmHg 63%
    02:00 +21°C° 0 mm 1 m/S 756 mmHg 65%
    03:00 +21°C° 0 mm 1 m/S 756 mmHg 68%
    04:00 +21°C° 0 mm 1 m/S 755 mmHg 70%
    05:00 +21°C° 0 mm 1 m/S 755 mmHg 69%
    06:00 +22°C° 0 mm 1 m/S 756 mmHg 68%
    07:00 +23°C° 0 mm 1 m/S 756 mmHg 66%
    08:00 +24°C° 0 mm 1 m/S 756 mmHg 61%
    09:00 +26°C° 0 mm 1 m/S 756 mmHg 55%
    10:00 +28°C° 0 mm 2 m/S 756 mmHg 49%
    11:00 +29°C° 0 mm 2 m/S 755 mmHg 47%
    12:00 +30°C° 0 mm 2 m/S 755 mmHg 44%
    13:00 +31°C° 0 mm 3 m/S 755 mmHg 41%
    14:00 +31°C° 0 mm 3 m/S 754 mmHg 42%
    15:00 +31°C° 0 mm 3 m/S 754 mmHg 42%
    16:00 +31°C° 0 mm 3 m/S 754 mmHg 43%
    17:00 +29°C° 0 mm 3 m/S 754 mmHg 48%
    18:00 +28°C° 0 mm 3 m/S 754 mmHg 54%
    19:00 +26°C° 0 mm 3 m/S 754 mmHg 60%
    20:00 +25°C° 0 mm 3 m/S 755 mmHg 63%
    21:00 +24°C° 0 mm 2 m/S 755 mmHg 67%
    22:00 +23°C° 0 mm 2 m/S 755 mmHg 71%
    23:00 +21°C° 0 mm 2 m/S 755 mmHg 74%

    21 August, Dienstag

    Zeit Temperatur Niederschläge Wind Luftdruck Luftfeuchtigkeit
    00:00 +21°C° 0 mm 2 m/S 756 mmHg 78%
    01:00 +20°C° 0 mm 2 m/S 756 mmHg 81%
    02:00 +19°C° 0 mm 2 m/S 756 mmHg 84%
    03:00 +19°C° 0 mm 2 m/S 756 mmHg 88%
    04:00 +19°C° 0 mm 1 m/S 756 mmHg 91%
    05:00 +19°C° 0 mm 2 m/S 756 mmHg 89%
    06:00 +19°C° 0 mm 2 m/S 757 mmHg 87%
    07:00 +20°C° 0 mm 2 m/S 757 mmHg 84%
    08:00 +21°C° 0 mm 2 m/S 757 mmHg 79%
    09:00 +23°C° 0 mm 2 m/S 757 mmHg 73%
    10:00 +24°C° 0 mm 2 m/S 757 mmHg 68%
    11:00 +25°C° 0 mm 2 m/S 757 mmHg 65%
    12:00 +26°C° 0 mm 2 m/S 757 mmHg 61%
    13:00 +26°C° 0 mm 2 m/S 756 mmHg 58%
    14:00 +27°C° 0 mm 2 m/S 756 mmHg 56%
    15:00 +27°C° 0 mm 2 m/S 756 mmHg 53%
    16:00 +28°C° 0 mm 2 m/S 756 mmHg 50%
    17:00 +27°C° 0 mm 2 m/S 756 mmHg 54%
    18:00 +26°C° 0 mm 1 m/S 756 mmHg 57%
    19:00 +25°C° 0 mm 1 m/S 755 mmHg 61%
    20:00 +24°C° 0 mm 1 m/S 756 mmHg 63%
    21:00 +23°C° 0 mm 1 m/S 756 mmHg 66%
    22:00 +21°C° 0 mm 2 m/S 756 mmHg 69%
    23:00 +20°C° 0 mm 2 m/S 756 mmHg 71%

    22 August, Mittwoch

    Zeit Temperatur Niederschläge Wind Luftdruck Luftfeuchtigkeit
    00:00 +20°C° 0 mm 2 m/S 756 mmHg 73%
    01:00 +20°C° 0 mm 2 m/S 756 mmHg 75%
    02:00 +19°C° 0 mm 2 m/S 756 mmHg 77%
    03:00 +19°C° 0 mm 2 m/S 756 mmHg 78%
    04:00 +19°C° 0 mm 2 m/S 756 mmHg 79%
    05:00 +19°C° 0 mm 2 m/S 756 mmHg 77%
    06:00 +20°C° 0 mm 2 m/S 756 mmHg 74%
    07:00 +21°C° 0 mm 2 m/S 756 mmHg 72%
    08:00 +24°C° 0 mm 2 m/S 756 mmHg 65%
    09:00 +26°C° 0 mm 2 m/S 756 mmHg 58%
    10:00 +27°C° 0 mm 2 m/S 756 mmHg 51%
    11:00 +28°C° 0,1 mm 2 m/S 756 mmHg 49%
    12:00 +29°C° 0,1 mm 2 m/S 755 mmHg 46%
    13:00 +30°C° 0,1 mm 2 m/S 755 mmHg 44%
    14:00 +29°C° 0,1 mm 2 m/S 755 mmHg 45%
    15:00 +29°C° 0,1 mm 2 m/S 755 mmHg 47%
    16:00 +29°C° 0,1 mm 3 m/S 755 mmHg 49%
    17:00 +28°C° 0 mm 2 m/S 755 mmHg 54%
    18:00 +26°C° 0 mm 2 m/S 755 mmHg 59%
    19:00 +25°C° 0 mm 2 m/S 755 mmHg 64%
    20:00 +24°C° 0 mm 2 m/S 756 mmHg 67%
    21:00 +23°C° 0 mm 2 m/S 756 mmHg 70%
    22:00 +21°C° 0 mm 2 m/S 756 mmHg 73%
    23:00 +20°C° 0 mm 2 m/S 756 mmHg 75%
    Mehr zeigen